Balance de Jandrain

Balances > Jandrain > Ce mois-ci

Ce mois-ci

Voir les données pour : cette semaine | hier

Graphiques

  Température (°C)   Température intérieure (°C)   Humidité (%)   Poids (kg)   Pluie (l/m²)



Journal

19 septembre 2019 : Sirop
12 septembre 2019 : Sirop

Tableau

Date Température (°C)Température int. (°C)Humidité (%)Pluie (l/m²)Poids (kg)
minmaxmoyminmaxmoyminmaxmoypoidsvariation
22/08/1911,827,720,332,835,734,106440,4032,50,0
23/08/1913,230,521,933,035,934,206341,2032,50,0
24/08/1913,932,623,832,536,134,286039,8032,4-0,1
25/08/1916,034,125,133,137,034,5406050,2032,5+0,1
26/08/1916,633,825,533,337,334,7156144,7032,8+0,3
27/08/1919,135,127,233,237,134,605331,8032,9+0,1
28/08/1919,231,424,933,336,134,4416554,5033,1+0,2
29/08/1917,824,821,033,535,434,206443,1233,10,0
30/08/1911,627,319,532,636,033,975840,7033,2+0,1
31/08/1911,932,723,532,336,033,9166342,7033,3+0,1
01/09/1915,619,016,732,934,433,5176539,5033,30,0
02/09/199,424,217,032,635,633,6226145,2033,4+0,1
03/09/1912,219,016,432,433,833,196047,1033,5+0,1
04/09/1912,623,117,432,834,833,615732,7132,9-0,6
05/09/1911,017,013,832,033,632,906131,0132,90,0
06/09/196,921,915,031,634,633,056139,7033,1+0,2
07/09/1913,420,716,232,434,233,106036,2033,10,0
08/09/1910,916,713,731,533,532,586338,0232,4-0,7
09/09/197,019,413,429,833,431,736241,1032,7+0,3
10/09/198,024,216,330,034,632,4296547,0032,4-0,3
11/09/1911,218,515,830,331,630,856035,7032,5+0,1
12/09/1917,225,120,531,334,532,605428,7134,6+2,1
13/09/1917,122,019,232,334,533,515929,5034,3-0,3
14/09/1910,126,817,930,135,032,5216543,7033,8-0,5
15/09/1910,226,918,730,735,332,8226145,8033,7-0,1
16/09/1913,021,117,331,332,832,066039,2033,9+0,2
17/09/1911,720,215,731,133,532,226542,8133,7-0,2
18/09/195,120,112,629,534,731,7286450,1033,5-0,2
19/09/195,221,012,832,333,833,1236346,8035,5+2,0
20/09/195,023,914,533,335,234,3365644,5034,9-0,6